GW4474 Weather Reports


Display with metric or nautical units.
time (UTC)temp
F
wind
direction
speed
MPH
gust
MPH
rain 1hr
in
rain 24hr
in
rain mn
in
humidity
%
barometer
mb
20260508090534 60 0.0 0.0 0.00 0.00 0.00 62 1017.4
20260508085531 61 0.0 0.0 0.00 0.00 0.00 60 1017.3
20260508084527 61 0.0 0.0 0.00 0.00 0.00 61 1017.2
20260508083524 61 0.0 0.0 0.00 0.00 0.00 60 1017.2
20260508082521 61 0.0 0.0 0.00 0.00 0.00 61 1017.1
20260508081517 60 0.0 0.0 0.00 0.00 0.00 62 1017.0
20260508080615 60 0.0 0.0 0.00 0.00 0.00 66 1016.9
20260508075611 59 0.0 0.0 0.00 0.00 0.00 68 1017.0
20260508074608 58 0.0 0.0 0.00 0.00 0.00 69 1016.8
20260508073605 57 0.0 0.0 0.00 0.00 0.00 71 1016.6
20260508072602 56 0.0 0.0 0.00 0.00 0.00 73 1016.5
20260508071559 55 0.0 0.0 0.00 0.00 0.00 73 1016.5
20260508070555 55 0.0 0.0 0.00 0.00 0.00 75 1016.5
20260508065552 54 0.0 0.0 0.00 0.00 0.00 78 1016.4
20260508064609 52 0.0 0.0 0.00 0.00 0.00 81 1016.3
20260508063545 52 0.0 0.0 0.00 0.00 0.00 82 1016.2
20260508062542 51 0.0 0.0 0.00 0.00 0.00 84 1016.0
20260508061559 51 0.0 0.0 0.00 0.00 0.00 85 1016.0
20260508060536 51 0.0 0.0 0.00 0.00 0.00 86 1015.9
20260508055553 50 0.0 0.0 0.00 0.00 0.00 86 1015.7
20260508054529 49 0.0 0.0 0.00 0.00 0.00 87 1015.7
20260508053547 49 0.0 0.0 0.00 0.00 0.00 87 1015.7
20260508052523 48 0.0 0.0 0.00 0.00 0.00 88 1015.8
20260508051520 48 0.0 0.0 0.00 0.00 0.00 87 1015.7
20260508050538 47 0.0 0.0 0.00 0.00 0.00 87 1015.7
20260508045614 47 0.0 0.0 0.00 0.00 0.00 86 1015.6
20260508044651 47 0.0 0.0 0.00 0.00 0.00 85 1015.5
20260508043607 47 0.0 0.0 0.00 0.00 0.00 85 1015.5
20260508042604 47 0.0 0.0 0.00 0.00 0.00 85 1015.4
20260508041601 47 0.0 0.0 0.00 0.00 0.00 85 1015.4
20260508040557 47 0.0 0.0 0.00 0.00 0.00 84 1015.3
20260508035615 48 0.0 0.0 0.00 0.00 0.00 84 1015.3
20260508034551 48 0.0 0.0 0.00 0.00 0.00 84 1015.3
20260508033548 48 0.0 0.0 0.00 0.00 0.00 83 1015.3
20260508032545 48 0.0 0.0 0.00 0.00 0.00 83 1015.3
20260508031542 48 0.0 0.0 0.00 0.00 0.00 84 1015.3
20260508030538 48 0.0 0.0 0.00 0.00 0.00 84 1015.3
20260508025535 48 0.0 0.0 0.00 0.00 0.00 83 1015.3
20260508024532 47 0.0 0.0 0.00 0.00 0.00 83 1015.3
20260508023529 47 0.0 0.0 0.00 0.00 0.00 82 1015.3
20260508022525 47 0.0 0.0 0.00 0.00 0.00 81 1015.2
20260508021522 47 0.0 0.0 0.00 0.00 0.00 79 1015.2
20260508020519 48 0.0 0.0 0.00 0.00 0.00 77 1015.1
20260508015516 48 0.0 0.0 0.00 0.00 0.00 75 1015.0
20260508014613 49 0.0 0.0 0.00 0.00 0.00 74 1015.0
20260508013610 50 0.0 0.0 0.00 0.00 0.00 74 1015.0
20260508012607 51 0.0 0.0 0.00 0.00 0.00 72 1015.0
20260508011623 51 0.0 0.0 0.00 0.00 0.00 72 1015.1
20260508010620 52 0.0 0.0 0.00 0.00 0.00 71 1015.1
20260508005557 52 0.0 0.0 0.00 0.00 0.00 70 1015.2
20260508004553 52 0.0 0.0 0.00 0.00 0.00 70 1015.0
20260508003610 53 0.0 0.0 0.00 0.00 0.00 70 1015.1
20260508002607 53 0.0 0.0 0.00 0.00 0.00 71 1015.1
20260508001544 53 0.0 0.0 0.00 0.00 0.00 71 1015.2
20260508000541 53 0.0 0.0 0.00 0.00 0.00 71 1015.3
20260507235558 52 0.0 0.0 0.00 0.00 0.00 71 1015.3
20260507234535 52 0.0 0.0 0.00 0.00 0.00 70 1015.2
20260507233531 52 0.0 0.0 0.00 0.00 0.00 69 1015.1
20260507232528 53 0.0 0.0 0.00 0.00 0.00 69 1015.2
20260507231525 53 0.0 0.0 0.00 0.00 0.00 69 1015.1
20260507230521 53 0.0 0.0 0.00 0.00 0.00 68 1015.1
20260507225519 54 0.0 0.0 0.00 0.00 0.00 67 1015.0
20260507224516 54 0.0 0.0 0.00 0.00 0.00 66 1014.9
20260507223612 54 0.0 0.0 0.00 0.00 0.00 66 1014.8
20260507222629 54 0.0 0.0 0.00 0.00 0.00 67 1014.7
20260507221606 54 0.0 0.0 0.00 0.00 0.00 67 1014.7
20260507220603 55 0.0 0.0 0.00 0.00 0.00 67 1014.7
20260507215559 55 0.0 0.0 0.00 0.00 0.00 67 1014.6
20260507214617 55 0.0 0.0 0.00 0.00 0.00 67 1014.6
20260507213553 55 0.0 0.0 0.00 0.00 0.00 67 1014.5
20260507212550 55 0.0 0.0 0.00 0.00 0.00 66 1014.4
20260507211548 55 0.0 0.0 0.00 0.00 0.00 66 1014.3
20260507210544 55 0.0 0.0 0.00 0.00 0.00 66 1014.1
20260507205601 55 0.0 0.0 0.00 0.00 0.00 65 1014.1
20260507204538 55 0.0 0.0 0.00 0.00 0.00 64 1014.0
20260507203614 55 0.0 0.0 0.00 0.00 0.00 64 1013.9
20260507202552 55 0.0 0.0 0.00 0.00 0.00 63 1013.8
20260507201528 56 0.0 0.0 0.00 0.00 0.00 63 1013.8
20260507200545 56 0.0 0.0 0.00 0.00 0.00 63 1013.7
20260507195521 56 0.0 0.0 0.00 0.00 0.00 63 1013.5
20260507194538 57 0.0 0.0 0.00 0.00 0.00 62 1013.5
20260507193535 57 0.0 0.0 0.00 0.00 0.00 62 1013.4
20260507192632 57 0.0 0.0 0.00 0.00 0.00 60 1013.3
20260507191608 58 0.0 0.0 0.00 0.00 0.00 59 1013.2
20260507190606 58 0.0 0.0 0.00 0.00 0.00 58 1013.1
20260507185602 59 0.0 0.0 0.00 0.00 0.00 57 1013.0
20260507184619 59 0.0 0.0 0.00 0.00 0.00 56 1013.0
20260507183556 59 0.0 0.0 0.00 0.00 0.00 53 1012.9
20260507182613 59 0.0 0.0 0.00 0.00 0.00 52 1012.9
20260507181549 59 0.0 0.0 0.00 0.00 0.00 52 1012.8
20260507180546 60 0.0 0.0 0.00 0.00 0.00 51 1012.8
20260507175543 60 0.0 0.0 0.00 0.00 0.00 51 1012.7
20260507174539 60 0.0 0.0 0.00 0.00 0.00 50 1012.8
20260507173536 60 0.0 0.0 0.00 0.00 0.00 51 1012.8
20260507172533 60 0.0 0.0 0.00 0.00 0.00 58 1012.7
20260507171530 60 0.0 0.0 0.00 0.00 0.00 60 1012.8
20260507170527 60 0.0 0.0 0.00 0.00 0.00 61 1012.9
20260507165524 60 0.0 0.0 0.00 0.00 0.00 61 1013.0
20260507164520 60 0.0 0.0 0.00 0.00 0.00 61 1013.0
20260507163517 60 0.0 0.0 0.00 0.00 0.00 59 1013.0
20260507162614 60 0.0 0.0 0.00 0.00 0.00 58 1013.0
20260507161612 61 0.0 0.0 0.00 0.00 0.00 52 1012.8
20260507160608 61 0.0 0.0 0.00 0.00 0.00 50 1012.9
20260507155605 62 0.0 0.0 0.00 0.00 0.00 45 1012.9
20260507154602 62 0.0 0.0 0.00 0.00 0.00 45 1012.9
20260507153639 63 0.0 0.0 0.00 0.00 0.00 43 1012.9
20260507152556 62 0.0 0.0 0.00 0.00 0.00 43 1012.9
20260507151552 62 0.0 0.0 0.00 0.00 0.00 42 1012.9
20260507150549 63 0.0 0.0 0.00 0.00 0.00 42 1013.0
20260507145546 62 0.0 0.0 0.00 0.00 0.00 43 1013.0
20260507144543 63 0.0 0.0 0.00 0.00 0.00 40 1013.1
20260507143539 63 0.0 0.0 0.00 0.00 0.00 44 1013.1
20260507142536 62 0.0 0.0 0.00 0.00 0.00 45 1013.2
20260507141533 62 0.0 0.0 0.00 0.00 0.00 48 1013.3
20260507140530 61 0.0 0.0 0.00 0.00 0.00 52 1013.3
20260507135526 61 0.0 0.0 0.00 0.00 0.00 53 1013.3
20260507134523 63 0.0 0.0 0.00 0.00 0.00 48 1013.4
20260507133520 64 0.0 0.0 0.00 0.00 0.00 39 1013.4
20260507132517 65 0.0 0.0 0.00 0.00 0.00 37 1013.3
20260507131614 65 0.0 0.0 0.00 0.00 0.00 36 1013.2
20260507130611 65 0.0 0.0 0.00 0.00 0.00 37 1013.3
20260507125607 64 0.0 0.0 0.00 0.00 0.00 38 1013.3
20260507124604 62 0.0 0.0 0.00 0.00 0.00 40 1013.4
20260507123601 62 0.0 0.0 0.00 0.00 0.00 41 1013.5
20260507122558 63 0.0 0.0 0.00 0.00 0.00 40 1013.5
20260507121615 62 0.0 0.0 0.00 0.00 0.00 41 1013.6
20260507120611 63 0.0 0.0 0.00 0.00 0.00 40 1013.7
20260507115548 64 0.0 0.0 0.00 0.00 0.00 39 1013.7
20260507114606 63 0.0 0.0 0.00 0.00 0.00 41 1013.7
20260507113542 62 0.0 0.0 0.00 0.00 0.00 43 1013.8
20260507112539 61 0.0 0.0 0.00 0.00 0.00 48 1013.8
20260507111555 60 0.0 0.0 0.00 0.00 0.00 49 1014.0
20260507110613 59 0.0 0.0 0.00 0.00 0.00 48 1013.9
20260507105529 59 0.0 0.0 0.00 0.00 0.00 48 1013.9
20260507104527 60 0.0 0.0 0.00 0.00 0.00 50 1013.9
20260507103523 60 0.0 0.0 0.00 0.00 0.00 45 1014.0
20260507102520 61 0.0 0.0 0.00 0.00 0.00 42 1014.1
20260507101517 63 0.0 0.0 0.00 0.00 0.00 40 1014.1
20260507100614 63 0.0 0.0 0.00 0.00 0.00 45 1014.2
20260507095610 60 0.0 0.0 0.00 0.00 0.00 44 1014.2
20260507094628 62 0.0 0.0 0.00 0.00 0.00 41 1014.3
20260507093604 64 0.0 0.0 0.00 0.00 0.00 38 1014.3
20260507092621 66 0.0 0.0 0.00 0.00 0.00 41 1014.3
20260507091557 62 0.0 0.0 0.00 0.00 0.00 48 1014.2